Location: Unspecified
(0.0000°N, 0.0000°E)
Time: 13:29:04
(UTC+00:00)

Courier 1B - All Passes

Search period start: 21 February 2019 00:00
Search period end: 03 March 2019 00:00
Orbit: 963 x 1209 km, 28.3° (Epoch: 20 February)

Date Brightness Start Highest point End Pass type
(mag) Time Alt. Az. Time Alt. Az. Time Alt. Az.
21 Feb - 00:46:31 10° NNW 00:51:30 20° NNE 00:56:40 10° ENE night (unlit)
21 Feb - 02:38:44 10° NW 02:46:06 63° NNE 02:53:50 10° ESE visible
21 Feb - 04:33:23 10° W 04:40:35 42° SSW 04:47:57 10° SE visible
21 Feb - 06:31:45 10° SW 06:35:47 15° SSW 06:39:47 10° S daylight
21 Feb - 12:21:13 10° SSW 12:25:20 16° SSE 12:29:19 10° ESE daylight
21 Feb - 14:13:22 10° SW 14:20:03 51° SSE 14:26:24 10° ENE daylight
21 Feb - 16:07:50 10° W 16:14:06 43° NNW 16:20:13 10° NE daylight
21 Feb - 18:06:13 10° NW 18:08:39 12° NNW 18:11:06 10° N daylight
21 Feb - 23:53:53 10° N 23:57:22 14° NNE 00:00:56 10° NE night (unlit)
22 Feb - 01:45:12 10° NW 01:52:08 46° NNE 01:59:27 10° E visible
22 Feb - 03:39:08 10° WNW 03:46:32 57° SSW 03:54:14 10° SE visible
22 Feb - 05:36:13 10° WSW 05:41:28 19° SSW 05:46:47 10° SSE visible
22 Feb - 11:28:24 10° S 11:31:07 12° SSE 11:33:47 10° SE daylight
22 Feb - 13:19:45 10° SW 13:26:12 37° SSE 13:32:18 10° E daylight
22 Feb - 15:13:38 10° WSW 15:20:21 62° NNW 15:26:47 10° NE daylight
22 Feb - 17:10:34 10° WNW 17:14:39 17° NNW 17:18:42 10° NNE daylight
23 Feb - 00:51:53 10° NNW 00:58:11 33° NNE 01:04:49 10° E night (unlit)
23 Feb - 02:45:08 10° WNW 02:52:32 77° SSW 03:00:22 10° SE visible
23 Feb - 04:41:10 10° WSW 04:47:16 25° SSW 04:53:29 10° SSE visible
23 Feb - 12:26:14 10° SSW 12:32:15 28° SSE 12:37:57 10° E daylight
23 Feb - 14:19:34 10° WSW 14:26:36 87° NNW 14:33:12 10° ENE daylight
23 Feb - 16:15:32 10° W 16:20:44 24° NNW 16:25:50 10° NNE daylight
23 Feb - 23:58:46 10° NNW 00:04:12 24° NNE 00:09:54 10° E night (unlit)
24 Feb - 01:51:21 10° NW 01:58:36 80° NNE 02:06:18 10° ESE visible
24 Feb - 03:46:29 10° W 03:53:07 33° SSW 04:00:01 10° SE visible
24 Feb - 05:46:03 10° SW 05:48:35 12° SSW 05:51:07 10° S visible
24 Feb - 11:32:50 10° SSW 11:38:11 21° SSE 11:43:19 10° ESE daylight
24 Feb - 13:25:40 10° SW 13:32:47 68° SSE 13:39:28 10° ENE daylight
24 Feb - 15:20:50 10° W 15:26:54 34° NNW 15:32:44 10° NE daylight
24 Feb - 23:05:56 10° NNW 23:10:12 17° NNE 23:14:36 10° ENE night (unlit)
25 Feb - 00:57:46 10° NW 01:04:42 58° NNE 01:12:05 10° ESE night (unlit)
25 Feb - 02:52:07 10° W 02:59:03 44° SSW 03:06:22 10° SE visible
25 Feb - 04:50:01 10° SW 04:54:12 15° SSW 04:58:27 10° SSE visible
25 Feb - 10:39:35 10° SSW 10:44:01 16° SSE 10:48:18 10° ESE daylight
25 Feb - 12:31:52 10° SW 12:38:55 49° SSE 12:45:32 10° ENE daylight
25 Feb - 14:26:23 10° WSW 14:33:06 48° NNW 14:39:27 10° NE daylight
25 Feb - 16:24:31 10° NW 16:27:35 13° NNW 16:30:36 10° N daylight
25 Feb - 22:13:43 10° N 22:16:07 12° NNE 22:18:34 10° NE night (unlit)
26 Feb - 00:04:22 10° NW 00:10:48 41° NNE 00:17:39 10° E night (unlit)
26 Feb - 01:58:01 10° WNW 02:05:04 60° SSW 02:12:35 10° SE visible
26 Feb - 03:54:43 10° WSW 03:59:56 20° SSW 04:05:18 10° SSE visible
26 Feb - 09:46:40 10° S 09:49:43 13° SSE 09:52:44 10° SE daylight
26 Feb - 11:38:11 10° SW 11:44:58 36° SSE 11:51:21 10° E daylight
26 Feb - 13:32:07 10° WSW 13:39:17 68° NNW 13:46:00 10° NE daylight
26 Feb - 15:28:57 10° WNW 15:33:35 19° NNW 15:38:06 10° NNE daylight
26 Feb - 23:11:09 10° NNW 23:16:55 29° NNE 23:22:59 10° E night (unlit)
27 Feb - 01:04:08 10° WNW 01:11:09 81° SSW 01:18:40 10° ESE night (unlit)
27 Feb - 02:59:51 10° W 03:05:45 26° SSW 03:11:55 10° SSE visible
27 Feb - 10:44:37 10° SSW 10:50:56 28° SSE 10:56:56 10° E daylight
27 Feb - 12:38:00 10° WSW 12:45:27 88° SSE 12:52:23 10° ENE daylight
27 Feb - 14:33:55 10° W 14:39:40 27° NNW 14:45:10 10° NNE daylight
27 Feb - 22:18:09 10° NNW 22:23:01 21° NNE 22:28:02 10° ENE night (unlit)
28 Feb - 00:10:28 10° NW 00:17:18 74° NNE 00:24:36 10° ESE night (unlit)
28 Feb - 02:05:20 10° W 02:11:40 34° SSW 02:18:23 10° SE visible
28 Feb - 04:04:28 10° SW 04:07:02 12° SSW 04:09:38 10° S visible
28 Feb - 09:51:12 10° SSW 09:56:47 21° SSE 10:02:11 10° ESE daylight
28 Feb - 11:44:04 10° SW 11:51:33 65° SSE 11:58:35 10° ENE daylight
28 Feb - 13:39:11 10° W 13:45:47 37° NNW 13:52:01 10° NE daylight
28 Feb - 15:39:09 10° NW 15:40:32 11° NNW 15:41:55 10° N daylight
28 Feb - 21:25:30 10° N 21:29:02 15° NNE 21:32:39 10° ENE night (unlit)
28 Feb - 23:16:58 10° NW 23:23:28 53° NNE 23:30:23 10° ESE night (unlit)
01 Mar - 01:11:05 10° W 01:17:41 45° SSW 01:24:43 10° SE night (unlit)
01 Mar - 03:08:40 10° SW 03:12:42 15° SSW 03:16:51 10° SSE visible
01 Mar - 08:57:58 10° SSW 09:02:32 16° SSE 09:07:01 10° ESE daylight
01 Mar - 10:50:14 10° SW 10:57:36 48° SSE 11:04:33 10° ENE daylight
01 Mar - 12:44:42 10° WSW 12:51:55 53° NNW 12:58:41 10° NE daylight
01 Mar - 14:42:33 10° WNW 14:46:27 15° NNW 14:50:13 10° N daylight
01 Mar - 20:34:01 10° NNE 20:34:59 10° NNE 20:35:56 10° NNE visible
01 Mar - 22:23:39 10° NW 22:29:40 37° NNE 22:35:58 10° E night (unlit)
02 Mar - 00:17:05 10° WNW 00:23:47 62° SSW 00:30:58 10° SE night (unlit)
02 Mar - 02:13:31 10° WSW 02:18:29 20° SSW 02:23:40 10° SSE visible
02 Mar - 08:05:05 10° S 08:08:12 13° SSE 08:11:16 10° SE daylight
02 Mar - 09:56:34 10° SW 10:03:34 36° SSE 10:10:16 10° E daylight
02 Mar - 11:50:25 10° WSW 11:58:02 73° NNW 12:05:10 10° NE daylight
02 Mar - 13:47:06 10° WNW 13:52:25 22° NNW 13:57:31 10° NNE daylight
02 Mar - 21:30:29 10° NNW 21:35:50 26° NNE 21:41:20 10° E visible
02 Mar - 23:23:17 10° WNW 23:29:58 85° SSW 23:37:04 10° ESE night (unlit)
